Preview of NWS' New Version of Forecast
This preview is not operational and should not be used for support decisions.
Latest weather observations around

Houston, Houston Hobby Airport (KHOU)

Using English Units (Switch to International System of Units)
Date/ Time (CDT) Wind (mph) Vis. (mi) Weather Sky Cond. Temp (°F) Rel. Humidity Wind Chill (°F) Heat Index (°F) Pressure Precip. (in)
Air Dwpt 6 hour Altimeter (inHg) Sea level (inHg) 1 hr 3 hr 6 hr
Max Min
Jun 24 19:53 S 10 10 Clear   82 70     67%   86 29.87 29.89      
Jun 24 18:53 S 14 10 Mostly Cloudy FEW030 SCT220 BKN250 86 69     57%   90 29.91 29.92      
Jun 24 17:53 SSW 9 10 Mostly Cloudy FEW035 SCT180 BKN250 85 71     63%   90 29.92 29.93      
Jun 24 16:53 SSW 8 10 Clear   84 71     65%   89 29.94 29.95      
Jun 24 15:53 S 9 10 Mostly Cloudy BKN200 BKN250 83 71     67%   88 29.94 29.95      
Jun 24 14:53 S 11 10 Mostly Cloudy BKN200 BKN250 82 70     67%   86 29.93 29.94      
Jun 24 13:53 SSE 13 10 Mostly Cloudy BKN180 BKN250 81 70     69%   84 29.94 29.95      
Jun 24 12:53 SE 18 10 Mostly Cloudy FEW100 SCT150 BKN250 79 68     69%   80 29.93 29.95     0
Jun 24 11:53 ESE 17 10 Mostly Cloudy SCT150 BKN250 75 68     79%   76 29.97 29.98 0    
Jun 24 10:53   8 Light Rain SCT080 BKN120 72 67     84%   73 29.89   0    
Jun 24 09:53 ESE 14 10 Light Rain SCT060 SCT120 OVC150 71 67     87%   72 29.99 30 0 1  
Jun 24 08:53 ESE 8 9 Light Rain SCT045 SCT080 OVC120 71 68     90%   72 30 30.01 0    
Jun 24 07:53 NE 13 10 Light Rain FEW025 SCT050 OVC065 70 67     90%     30.01 30.02 0    
Jun 24 07:22 NE 16 3 Heavy Rain and Fog/Mist SCT030 OVC055 69 67     93%     29.99   0    
Jun 24 07:12 NE 17 2.5 Thunderstorms and Heavy Rain and Fog/Mist SCT008 BKN025 OVC040 69 67     93%     29.99   0    
Jun 24 06:59 NE 23 2.5 Thunderstorms and Heavy Rain and Fog/Mist SCT008 BKN025 OVC040 69 66     90%     29.97   0    
Jun 24 06:53 ENE 20 2.5 Thunderstorms and Heavy Rain and Fog/Mist BKN008 BKN012 BKN025 69 66     90%     29.98 29.99 1   1
Jun 24 06:47 ENE 18 1.5 Thunderstorms and Heavy Rain and Fog/Mist BKN008 BKN012 BKN025 70 66     88%     29.98   0    
Jun 24 06:42 ENE 17 2 Thunderstorms and Heavy Rain and Fog/Mist BKN008 BKN012 BKN025 69 66     90%     29.97   0    
Jun 24 06:27 E 15 4 Thunderstorms and Heavy Rain and Fog/Mist BKN010 BKN026 BKN035 70 67     90%     29.98   0    
Jun 24 06:16 ENE 15 8 Thunderstorms and Rain SCT013 BKN020 BKN035 71 66     84%   72 29.96   0    
Jun 24 05:53   9 Thunderstorms and Rain and Squalls SCT013 BKN030 BKN060 BKN250 76 69     79%   77 29.92 29.93 0    
Jun 24 05:17 SE 3 8 Thunderstorms FEW016 BKN030 BKN043 83 78     85%   93 29.88        
Jun 24 04:53 SSE 6 8 Mostly Cloudy FEW015 BKN025 BKN046 BKN250 83 78     85%   93 29.86 29.87      
Jun 24 03:53 S 8 9 Mostly Cloudy BKN015 BKN026 BKN032 BKN250 83 78     85%   93 29.85 29.86      
Jun 24 02:53 S 11 8 Mostly Cloudy BKN017 BKN026 BKN035 BKN250 84 78     82%   95 29.85 29.86      
Jun 24 01:53 S 13 8 Mostly Cloudy BKN017 BKN028 BKN250 84 78     82%   95 29.85 29.86      
Jun 24 00:53 S 9 8 Mostly Cloudy BKN017 BKN030 BKN250 84 78     82%   95 29.85 29.85      
Jun 23 23:53 S 13 9 Mostly Cloudy SCT017 SCT028 BKN250 84 78     82%   95 29.84 29.85      
Jun 23 22:53 S 16 8 Partly Cloudy FEW014 SCT022 SCT250 84 78     82%   95 29.84 29.85      
Jun 23 21:53 S 17 9 Partly Cloudy FEW015 FEW025 SCT250 85 78     80%   97 29.83 29.84      
Jun 23 20:53 S 13 8 Partly Cloudy FEW015 FEW025 SCT250 85 77     77%   95 29.82 29.83      
Jun 23 19:53 S 11 9 Partly Cloudy FEW022 SCT033 SCT250 87 77     72%   99 29.81 29.82      
Jun 23 18:53 S 16 9 Partly Cloudy FEW025 SCT035 SCT250 89 76     65%   100 29.81 29.82     0
Jun 23 17:53 S 20 9 Partly Cloudy and Windy FEW025 SCT040 SCT250 89 77     68%   102 29.82 29.83 0    
Jun 23 16:53 S 14 10 Light Rain FEW020 BKN035 BKN250 91 76     61%   103 29.83 29.84 0    
Jun 23 15:53 S 18 10 Mostly Cloudy FEW025 SCT035 BKN060 BKN250 91 76     61%   103 29.84 29.85   0  
Jun 23 14:53 S 18 10 Mostly Cloudy FEW033 BKN049 BKN250 91 77     64%   105 29.86 29.87 0    
Jun 23 13:53 S 17 10 Mostly Cloudy SCT030 BKN047 BKN250 92 77     62%   106 29.88 29.89      
Jun 23 12:53 S 18 10 Mostly Cloudy FEW027 SCT034 BKN060 BKN250 91 77     64%   105 29.9 29.91      
Jun 23 11:53 S 15 10 Mostly Cloudy SCT041 SCT150 BKN250 89 77     68%   102 29.91 29.92      
Jun 23 11:43 S 14 10 Mostly Cloudy FEW029 SCT041 SCT150 BKN250 88 77     70%   100 29.92        
Jun 23 11:20 S 18 10 Thunderstorms SCT028 BKN036 BKN250 90 76     64%   102 29.92        
Jun 23 10:53 S 17 10 Mostly Cloudy SCT031 BKN037 90 76     64%   102 29.92 29.93      
Jun 23 09:53 S 20 10 Mostly Cloudy and Windy SCT027 SCT060 BKN250 88 75     66%   98 29.93 29.93      
Jun 23 08:53 S 16 10 Partly Cloudy SCT026 SCT047 SCT250 87 76     70%   98 29.94 29.95      
Jun 23 07:53 SSE 11 10 Partly Cloudy FEW016 SCT250 84 76     77%   93 29.92 29.93      
Jun 23 06:53 SSE 10 10 Partly Cloudy SCT180 SCT250 83 75     77%   90 29.91 29.92      
Jun 23 05:53 S 11 10 Mostly Cloudy FEW018 SCT035 BKN200 83 76     79%   91 29.92 29.93      
Jun 23 04:53 S 10 10 Clear   83 76     79%   91 29.92 29.93      
Jun 23 03:53 S 11 10 Mostly Cloudy FEW018 SCT025 BKN200 83 77     82%   92 29.92 29.93      
Jun 23 02:53 SSE 11 10 Cloudy SCT018 SCT025 BKN180 OVC250 84 77     80%   94 29.94 29.95      
Jun 23 01:53 SSE 14 10 Cloudy SCT018 BKN025 BKN180 OVC250 84 77     80%   94 29.94 29.95      
Jun 23 00:53 SSE 15 10 Mostly Cloudy SCT016 BKN029 BKN040 BKN200 84 77     80%   94 29.95 29.96      
Jun 23 00:48 SSE 13 10 Mostly Cloudy SCT016 BKN029 BKN040 BKN200 84 77     79%   94 29.95        
Jun 22 23:53 S 13 10 Mostly Cloudy FEW015 FEW028 SCT050 BKN200 84 78     82%   95 29.95 29.96      
Jun 22 22:53 SSE 13 10 Mostly Cloudy FEW016 SCT026 BKN200 BKN250 85 78     80%   97 29.94 29.95      
Jun 22 22:45 SSE 11 10 Mostly Cloudy FEW016 SCT026 BKN200 BKN250 85 78     80%   97 29.93        
Jun 22 21:53 SSE 13 10 Mostly Cloudy SCT017 BKN028 BKN250 85 78     80%   97 29.92 29.93      
Jun 22 20:53 SSE 17 10 Mostly Cloudy SCT017 BKN035 BKN180 BKN250 86 78     77%   98 29.91 29.92      
Jun 22 19:53 SSE 14 9 Mostly Cloudy FEW021 BKN030 BKN250 86 78     77%   98 29.91 29.92      
Jun 22 18:53 SSE 18 9 Mostly Cloudy SCT023 BKN035 BKN250 88 78     73%   102 29.91 29.92     0
Jun 22 17:53 S 13 9 Mostly Cloudy SCT023 BKN035 BKN100 BKN250 89 79     72%   105 29.92 29.93 0    
Jun 22 16:53 S 13 9 Mostly Cloudy FEW021 SCT030 BKN060 BKN250 88 79     75%   103 29.93 29.94 0    
Jun 22 15:53 SSE 17 10 Mostly Cloudy SCT029 BKN045 BKN180 BKN250 92 77     62%   106 29.94 29.95   0  
Jun 22 14:53 SSE 17 10 Mostly Cloudy FEW029 BKN041 BKN060 BKN250 91 77     64%   105 29.95 29.96 0    
Jun 22 13:53 S 18 10 Mostly Cloudy SCT040 BKN060 BKN250 91 76     61%   103 29.96 29.97 0    
Jun 22 12:53 S 17 10 Mostly Cloudy SCT027 BKN039 BKN080 BKN250 91 76     61%   103 29.97 29.98      
Jun 22 11:53 S 10 10 Mostly Cloudy FEW027 BKN043 BKN250 90 76     64%   102 29.97 29.98      
Jun 22 10:53 SSE 18 10 Cloudy FEW027 SCT035 BKN210 OVC250 88 75     66%   98 29.96 29.97      
Jun 22 09:53 S 17 9 Mostly Cloudy SCT024 SCT034 BKN250 86 75     70%   95 29.96 29.97      
Jun 22 08:53 S 15 9 Mostly Cloudy FEW022 SCT032 BKN250 86 76     72%   96 29.96 29.97      
Jun 22 07:53 S 11 9 Mostly Cloudy FEW032 SCT120 BKN250 84 76     77%   93 29.96 29.97      
Jun 22 06:53 S 8 8 Mostly Cloudy FEW032 SCT120 SCT200 BKN250 82 76     82%   89 29.95 29.96      
Jun 22 05:53 S 8 10 Mostly Cloudy FEW020 SCT028 BKN035 BKN200 82 76     82%   89 29.93 29.94      
Jun 22 04:53 S 11 10 Cloudy SCT030 BKN200 OVC250 83 76     79%   91 29.92 29.93      
Jun 22 03:53 S 9 10 Cloudy FEW015 FEW032 BKN200 OVC250 83 78     85%   93 29.92 29.93      
Jun 22 03:34 S 10 10 Cloudy FEW015 SCT023 OVC250 83 78     85%   93 29.92        
Jun 22 02:53 S 11 9 Cloudy FEW014 BKN025 OVC250 83 78     85%   93 29.91 29.92      
Jun 22 01:53 SSE 15 9 Mostly Cloudy SCT014 BKN020 BKN028 84 79     85%   96 29.92 29.93      
Jun 22 01:25 SSE 9 9 Mostly Cloudy BKN014 BKN022 BKN030 84 79     85%   96 29.92        
Jun 22 00:53 S 9 9 Mostly Cloudy FEW014 SCT020 BKN028 84 79     85%   96 29.93 29.94      
Jun 21 23:53 SSE 15 9 Mostly Cloudy SCT015 BKN027 BKN250 84 79     85%   96 29.92 29.93      
Jun 21 22:53 SSE 10 9 Mostly Cloudy SCT015 BKN028 BKN250 85 79     82%   98 29.92 29.93      
May 14 04:53 ESE 3 10 Clear   72 72     100%   74 29.96 29.97      
May 12 17:53 SE 11 10 Partly Cloudy SCT040 86 71     61%   92 29.95 29.96      
May 12 04:37 SSE 5 10 Partly Cloudy SCT016 SCT040 74 73     97%   76 29.97        
May 12 01:53 6 10 Partly Cloudy SCT030 SCT250 75 73     94%   77 29.98 29.99      
May 11 16:53 SE 16 10 Partly Cloudy SCT042 84 69     61%   88 29.94 29.95      
May 11 07:53 SSE 6 10 Mostly Clear FEW020 74 72     94%   75 30 30.01      
Jun 12 04:53 ESE 5 10 Mostly Clear FEW050 78 76     93%   80 29.9 29.91      
Jun 11 21:53 ESE 6 10 Clear   81 75     82%   87 29.91 29.92      
Jun 11 12:53 6 10 Mostly Cloudy SCT031 BKN050 BKN070 86 74     67%   94 29.93 29.94      
Jun 08 18:53 NE 8 10 Clear   86 60     42%   86 29.85 29.87      
Jun 08 03:53 ENE 5 10 Clear CLR 74 61     64%   74 29.91 29.92      
Jun 05 22:53 Calm 10 Mostly Cloudy SCT024 BKN100 BKN250 73 71     94%   74 29.74 29.75 0